Sussex, NJ

8:16 PM EDT on June 26, 2017 (GMT -0400)
Sussex

Weather History for KFWN - March, 2013

Change the Weather History Date:

Wednesday, March 20, 2013

  Actual Average Record
Temperature  
Mean Temperature 34 °F -  
Max Temperature 42 °F 47 °F 75 °F (2012)
Min Temperature 28 °F 24 °F -5 °F (1967)
Degree Days  
Heating Degree Days 30    
Moisture  
Dew Point 17 °F    
Average Humidity 50    
Maximum Humidity 69    
Minimum Humidity 31    
Precipitation  
Precipitation 0.00 in - - ()
Sea Level Pressure  
Sea Level Pressure 29.83 in    
Wind  
Wind Speed 7 mph (WSW)    
Max Wind Speed 14 mph    
Max Gust Speed 22 mph    
Visibility 10 miles    
Events Rain , Snow    
Averages and records for this station are not official NWS values.
T = Trace of Precipitation, MM = Missing Value Source: NWS Daily Summary

Daily Weather History Graph

Daily Weather History Graph

Search for Another Location

Airport or City:

Trip Planner

Search our weather history database for the weather conditions in past years. The results will help you decide how hot, cold, wet, or windy it might be!

Date:

Astronomy

Mar. 20, 2013 Rise Set
Actual Time 7:01 AM EDT 7:10 PM EDT
Civil Twilight 6:33 AM EDT 7:38 PM EDT
Nautical Twilight 6:01 AM EDT 8:10 PM EDT
Astronomical Twilight 5:29 AM EDT 8:43 PM EDT
Moon 12:40 PM EDT (3/20) 2:42 AM EDT (3/20)
Length of Visible Light 13h 04m
Length of Day
12h 09m
First Quarter, 59% of the Moon is Illuminated
Mar 20
First Quarter
Mar 27
Full
Apr 3
Last Quarter
Apr 10
New
Apr 18
First Quarter

Hourly Weather History & Observations

Time (EDT) Temp. Windchill Dew Point Humidity Pressure Visibility Wind Dir Wind Speed Gust Speed Precip Events Conditions
12:40 AM 32.0 °F 24.8 °F 21.2 °F 64% 29.82 in 2.5 mi NW 8.1 mph 19.6 mph 0.00 in Snow Light Snow
12:46 AM 30.2 °F 24.3 °F 21.2 °F 69% 29.82 in 4.0 mi Variable 5.8 mph - 0.00 in Snow Light Snow
12:53 AM 32.0 °F 26.4 °F 21.0 °F 64% 29.83 in 10.0 mi WNW 5.8 mph - 0.00 in   Scattered Clouds
1:53 AM 32.0 °F 27.5 °F 18.0 °F 56% 29.85 in 10.0 mi Variable 4.6 mph 16.1 mph N/A   Scattered Clouds
2:53 AM 30.9 °F 27.5 °F 17.1 °F 57% 29.85 in 10.0 mi WSW 3.5 mph - N/A   Clear
3:53 AM 30.0 °F 25.2 °F 14.0 °F 51% 29.83 in 10.0 mi Variable 4.6 mph - N/A   Scattered Clouds
4:53 AM 28.9 °F 23.9 °F 15.1 °F 56% 29.85 in 10.0 mi WSW 4.6 mph - N/A   Scattered Clouds
5:53 AM 28.0 °F 24.2 °F 16.0 °F 61% 29.85 in 10.0 mi SSW 3.5 mph - N/A   Mostly Cloudy
6:53 AM 28.9 °F 23.9 °F 17.1 °F 61% 29.86 in 10.0 mi SW 4.6 mph - N/A   Overcast
7:53 AM 30.9 °F 25.2 °F 17.1 °F 57% 29.86 in 10.0 mi SW 5.8 mph - N/A   Overcast
8:53 AM 32.0 °F 26.4 °F 17.1 °F 54% 29.86 in 10.0 mi Variable 5.8 mph - N/A   Overcast
9:53 AM 34.0 °F 25.5 °F 15.1 °F 46% 29.86 in 10.0 mi West 11.5 mph 19.6 mph 0.00 in   Mostly Cloudy
10:53 AM 35.1 °F 25.9 °F 14.0 °F 42% 29.86 in 10.0 mi WSW 13.8 mph 18.4 mph 0.00 in   Mostly Cloudy
11:53 AM 37.0 °F 28.9 °F 12.0 °F 36% 29.85 in 10.0 mi WSW 12.7 mph 18.4 mph 0.00 in   Partly Cloudy
12:53 PM 37.9 °F 30.9 °F 15.1 °F 39% 29.83 in 10.0 mi West 10.4 mph 17.3 mph 0.00 in Rain Light Rain
1:53 PM 39.0 °F 32.8 °F 14.0 °F 36% 29.81 in 10.0 mi SW 9.2 mph 19.6 mph 0.00 in   Partly Cloudy
2:53 PM 41.0 °F 34.7 °F 14.0 °F 33% 29.79 in 10.0 mi West 10.4 mph 18.4 mph 0.00 in   Mostly Cloudy
3:53 PM 41.0 °F 35.8 °F 12.0 °F 31% 29.78 in 10.0 mi WSW 8.1 mph - N/A   Mostly Cloudy
4:53 PM 41.0 °F 33.9 °F 12.9 °F 32% 29.78 in 10.0 mi WSW 12.7 mph 21.9 mph N/A   Overcast
5:53 PM 39.9 °F 33.9 °F 16.0 °F 38% 29.78 in 10.0 mi WSW 9.2 mph 19.6 mph N/A   Scattered Clouds
6:53 PM 39.0 °F 33.4 °F 17.1 °F 41% 29.80 in 10.0 mi WNW 8.1 mph 19.6 mph 0.00 in   Mostly Cloudy
7:53 PM 36.0 °F - 18.0 °F 48% 29.79 in 10.0 mi Calm Calm - N/A   Clear
8:53 PM 35.1 °F 30.1 °F 19.9 °F 54% 29.81 in 10.0 mi NNW 5.8 mph - N/A   Scattered Clouds
9:53 PM 34.0 °F - 21.0 °F 59% 29.83 in 10.0 mi Calm Calm - N/A   Overcast
10:53 PM 33.1 °F 30.0 °F 21.0 °F 61% 29.83 in 10.0 mi Variable 3.5 mph - N/A   Overcast
11:53 PM 33.1 °F - 21.0 °F 61% 29.84 in 10.0 mi Calm Calm - N/A   Overcast